Location: Bellflower
(33.8817°N, 118.1170°W)
Time: 14:01:36
(UTC+00:00)

ERS-2 - Pass Details

Date: 23 November 2020
Orbit: 492 x 498 km, 98.6° (Epoch: 22 January)

Event Time Altitude Azimuth Distance (km) Brightness Sun altitude
Rises 12:39:57 0° 161° (SSE) 2,556 6.1 -23.2°
Reaches altitude 10° 12:42:01 10° 158° (SSE) 1,679 5.2 -22.7°
Maximum altitude 12:45:36 68° 76° (ENE) 533 2.3 -22.0°
Enters shadow 12:46:32 45° 10° (N) 678 2.7 -21.8°
